Wind_Gust
29 26 27 27 27 26 27 26 24 25 26 24 25 25 24 22 21 22 21 19 19 20 19 18 16 16 16 17 17 16 16 17 17 16 17 17 16 16 18 16 14 16
28 26 24 23 23 21 21 23 24 27 27 26 25 22 20 22 22 21 22 21 20 21 20 19 18 17 17 17 17 17 16 16 18 15 17 17 17 16 17 17 17 14
27 25 25 24 26 24 26 25 24 24 24 24 20 21 21 22 21 20 22 21 21 21 20 20 18 18 18 17 18 18 18 17 19 17 18 19 17 18 16 16 15 17
29 29 29 27 25 23 22 22 21 21 19 20 23 23 23 21 20 21 20 20 21 21 20 19 20 19 18 19 18 18 18 19 18 17 18 16 17 18 17 16 16 15
27 31 27 25 23 22 21 23 24 23 23 25 21 19 21 21 22 22 22 22 21 21 21 21 20 20 19 19 19 18 18 18 16 18 18 18 17 17 16 16 16 17
24 24 23 23 23 23 24 25 26 25 24 21 24 23 22 21 21 22 22 23 22 22 22 22 21 20 20 19 19 19 19 18 18 18 18 18 16 16 15 16 17 17
25 24 23 23 21 21 23 25 24 24 24 24 21 22 23 23 24 24 23 23 23 22 23 22 21 20 19 19 19 19 18 19 18 19 19 17 16 17 15 16 18 18
24 23 24 23 23 23 24 24 23 25 24 22 23 25 24 26 25 23 23 23 23 23 22 21 21 20 19 19 21 20 19 17 18 19 18 17 16 17 17 17 16 17
26 25 24 25 27 24 23 24 24 23 23 25 26 24 24 25 25 24 22 22 21 21 21 21 21 20 20 20 21 21 21 19 18 19 19 19 19 19 19 16 16 17
31 29 29 26 25 26 25 24 24 23 23 25 25 23 24 23 22 22 20 20 21 20 20 20 20 20 19 20 21 22 21 21 19 19 19 19 20 19 18 19 19 17
30 27 26 29 30 30 30 29 29 27 23 25 24 23 23 21 20 19 20 20 23 21 21 20 21 21 20 20 20 20 20 20 19 19 19 19 19 19 16 19 18 19
32 28 28 28 29 27 27 26 25 22 23 23 23 24 22 21 21 20 22 23 21 21 21 21 20 21 22 22 22 20 19 19 18 19 19 19 18 18 19 18 19 19
27 28 28 27 26 26 25 22 22 21 21 21 20 21 22 21 21 21 20 21 22 21 22 22 21 21 22 22 21 21 20 19 18 18 18 19 18 19 19 19 19 18
28 27 25 26 24 23 23 22 21 21 21 20 18 20 21 24 25 25 23 20 21 21 22 20 21 21 21 21 22 22 20 19 19 19 19 18 17 18 18 18 19 18
26 24 23 23 23 24 21 21 21 20 20 19 20 23 22 22 22 21 20 20 20 21 21 21 23 24 23 24 23 21 20 20 19 20 20 19 18 17 17 17 17 18
27 25 26 26 25 25 25 24 24 23 22 22 21 22 21 20 20 20 22 23 23 22 22 22 23 23 20 23 20 22 20 20 19 19 19 18 18 17 16 17 17 17
26 27 25 25 25 26 26 25 26 26 26 27 29 30 29 27 22 23 24 24 25 25 24 23 24 23 21 22 23 23 21 20 21 19 17 18 18 18 18 17 16 16
27 28 30 29 27 26 25 24 23 22 21 23 23 23 23 21 22 24 25 24 23 23 24 25 24 18 22 24 24 24 20 22 19 19 18 19 19 19 18 17 17 16
22 26 30 31 31 30 28 27 26 25 25 24 24 24 22 23 23 24 24 24 24 25 26 25 23 19 24 25 25 25 24 21 19 19 19 19 19 18 18 17 16 16
18 23 29 30 29 31 29 27 28 29 27 27 25 23 25 26 24 25 24 24 26 26 26 25 24 19 25 25 26 27 26 22 20 20 19 19 19 19 19 19 19 19
26 22 20 25 27 27 27 27 29 28 27 26 26 27 30 30 27 26 25 24 24 24 24 24 24 21 25 27 27 29 28 24 23 20 20 19 20 20 21 21 19 20
17 18 20 19 22 23 23 25 28 30 30 27 28 28 27 25 22 22 26 24 22 24 26 25 24 23 26 27 27 27 28 26 24 24 23 22 22 21 22 21 20 20
26 25 22 18 18 20 20 23 20 20 21 20 21 20 18 19 20 23 25 27 27 25 24 24 23 22 26 27 29 30 22 25 22 22 22 21 22 20 20 19 20 22
25 27 26 25 26 24 24 22 22 24 24 24 23 24 23 23 24 25 27 28 28 27 29 29 31 28 28 27 28 28 26 28 27 25 23 22 21 19 18 18 20 23
21 22 23 23 24 24 24 28 24 24 23 24 24 25 28 25 24 24 23 25 26 27 23 32 30 26 27 28 29 29 30 28 25 23 23 23 22 21 18 19 19 19
17 17 18 20 22 23 24 25 24 22 21 23 22 23 23 22 24 23 24 26 25 25 25 26 27 24 24 29 30 31 32 32 24 24 26 25 23 22 19 17 18 18
Wind_Speed
17 14 14 13 13 13 13 13 12 12 12 10 11 12 12 10 9 10 10 9 10 10 10 10 10 9 9 10 10 9 9 10 9 9 10 10 9 10 10 10 9 9
16 15 13 13 12 11 11 12 12 12 13 12 10 8 7 8 9 10 10 10 10 10 10 10 10 11 10 9 10 10 9 9 10 7 10 11 10 10 11 12 11 9
13 12 14 15 14 14 14 12 12 11 11 10 7 7 7 8 9 9 10 10 11 11 11 11 11 11 11 10 11 10 10 10 10 9 10 11 9 10 10 10 9 11
7 9 13 15 14 14 12 10 10 9 9 8 9 7 7 7 8 9 10 11 10 10 10 12 12 11 11 11 11 9 10 11 10 10 10 8 9 10 10 9 9 9
10 12 13 12 11 12 12 12 11 10 10 9 6 6 7 8 9 9 9 9 10 10 9 11 11 12 11 11 11 10 10 10 9 10 10 10 9 9 9 9 10 10
14 10 4 10 9 8 9 10 11 10 9 8 7 6 7 8 8 9 9 9 9 10 10 10 11 11 11 11 10 10 10 9 10 11 11 11 9 8 8 9 10 10
6 8 7 7 10 8 7 8 7 8 8 6 5 6 6 8 8 9 9 8 9 10 11 11 11 11 10 10 11 10 10 11 11 11 11 9 9 10 9 9 10 10
12 9 8 7 4 8 10 8 6 7 7 7 7 6 7 7 8 8 8 9 9 10 11 11 12 12 11 11 11 11 11 9 10 12 11 10 9 10 10 9 10 10
8 8 9 10 11 6 4 8 7 6 7 8 8 7 7 8 9 9 9 9 10 10 11 11 12 12 11 12 12 12 12 10 10 11 11 11 11 11 11 9 9 10
12 10 10 10 11 12 13 10 6 6 5 8 8 7 9 8 9 10 10 10 11 11 11 11 12 11 11 12 13 12 12 12 11 11 11 11 12 11 11 10 11 10
13 13 14 13 13 12 15 15 17 16 10 10 9 9 9 9 9 10 11 11 11 12 12 12 12 12 12 12 12 11 12 12 12 11 11 11 11 11 11 12 11 12
12 11 14 16 14 12 12 13 13 12 12 11 11 11 10 10 11 10 11 12 12 12 12 13 12 12 13 13 13 12 11 11 11 11 11 11 11 11 11 11 11 11
11 13 13 13 13 11 9 9 9 8 9 10 11 12 11 10 11 11 10 11 12 12 13 13 13 13 13 13 13 12 12 11 11 11 11 11 11 11 11 11 11 10
11 11 11 10 10 8 7 8 8 8 9 8 8 9 10 11 11 11 10 10 11 12 13 12 12 12 12 12 12 12 12 11 11 11 11 11 11 11 11 11 11 11
8 8 8 7 8 9 7 7 8 10 11 11 10 10 9 10 10 10 11 11 11 11 11 11 11 12 11 12 12 12 11 12 12 12 12 11 11 10 10 11 10 10
8 8 8 8 8 9 8 7 3 2 3 7 9 8 2 1 3 6 10 11 11 11 11 10 11 10 12 16 14 12 11 10 10 11 11 11 10 10 9 10 11 10
9 8 8 9 9 9 9 7 6 4 2 3 4 6 12 15 13 7 6 7 9 9 10 10 10 10 14 15 16 16 12 11 11 11 10 11 11 11 10 10 9 10
10 9 9 9 9 9 10 9 8 8 7 8 8 8 6 3 6 11 13 12 10 11 9 9 10 11 14 15 16 17 15 11 10 9 9 10 11 11 10 9 10 9
10 10 9 8 8 9 9 10 11 11 10 10 12 12 9 9 8 7 9 9 10 11 11 12 12 11 11 15 17 17 18 14 9 10 10 10 10 11 10 10 9 9
7 8 9 10 9 8 8 8 8 10 12 12 10 9 10 10 11 12 11 10 12 11 11 12 13 9 12 15 17 18 18 16 11 11 10 11 11 11 11 11 11 10
7 7 8 7 7 8 9 10 11 9 9 9 9 10 11 12 13 13 13 13 12 10 8 11 12 14 13 14 15 17 19 16 12 10 10 11 11 12 12 12 12 11
8 9 9 9 8 8 9 10 11 12 12 11 10 9 8 7 7 8 10 11 12 12 11 12 12 16 15 16 18 19 20 13 12 12 12 12 12 13 13 12 12 12
9 9 10 10 10 11 11 12 12 12 11 9 10 10 10 11 11 13 13 15 15 15 14 13 12 16 21 22 24 25 17 10 12 12 12 12 12 11 11 11 11 13
9 9 10 10 10 12 13 12 12 10 10 10 11 12 11 12 12 12 12 12 12 12 13 13 14 15 22 21 22 21 18 15 13 13 13 12 12 11 10 10 12 16
8 9 9 9 10 12 11 12 12 12 11 10 10 10 11 10 10 10 11 11 12 13 16 16 14 15 22 22 20 19 17 12 12 11 12 12 11 11 10 10 10 13
7 9 9 10 11 10 9 11 9 8 9 11 10 10 10 10 11 11 13 13 12 13 13 15 15 14 14 21 20 22 23 16 12 12 12 13 12 11 9 9 10 10
Wind_Direction
205 197 202 205 207 206 204 207 211 216 222 212 196 199 198 195 177 183 179 172 174 174 170 169 168 167 167 166 169 169 174 179 179 176 181 181 186 178 182 182 182 189
206 201 203 205 209 205 205 204 210 212 216 215 208 190 184 176 186 175 174 174 172 173 169 170 171 169 168 169 170 170 173 174 179 178 177 183 186 183 188 185 187 185
214 211 206 204 204 203 203 202 206 213 217 217 201 179 178 177 177 175 174 175 176 175 172 170 170 172 172 173 172 173 174 175 179 179 181 187 182 186 190 184 187 185
300 264 222 212 206 202 198 196 205 213 219 208 204 192 171 168 171 177 178 179 178 177 174 170 172 174 175 175 173 177 178 180 181 175 183 185 188 187 187 184 189 191
176 249 260 240 219 210 196 193 196 204 210 211 195 170 168 166 175 182 179 180 178 174 176 177 174 175 176 176 177 177 179 181 179 178 183 187 188 186 188 182 187 194
179 173 273 292 260 221 205 201 192 192 200 200 193 174 174 167 175 181 181 179 182 176 176 178 178 179 177 177 181 184 179 180 181 181 187 188 186 189 184 189 189 195
187 179 192 246 280 275 235 212 191 183 190 184 152 178 167 172 177 182 182 180 178 180 179 180 180 181 181 178 183 187 187 183 178 185 188 190 183 190 192 189 194 197
152 147 142 142 156 252 237 232 196 180 172 160 173 171 172 176 179 177 180 180 182 186 185 183 184 183 182 181 185 189 190 187 183 185 189 188 185 194 194 194 194 198
186 168 153 143 137 143 262 265 240 194 172 175 177 173 174 179 182 180 180 185 188 190 189 190 189 187 185 185 189 190 189 191 188 185 188 186 191 198 197 193 195 201
193 183 169 171 173 184 181 194 262 291 191 185 185 178 180 182 181 183 182 187 193 193 194 193 193 193 190 192 193 192 192 191 188 189 190 191 193 196 195 194 200 200
187 181 176 183 191 195 198 193 189 196 194 189 186 189 187 181 186 185 188 190 195 196 197 199 198 194 194 196 199 198 195 191 189 190 192 193 194 194 194 195 198 203
179 191 190 185 187 201 212 203 197 195 184 182 184 191 190 190 187 191 194 197 198 198 199 202 199 198 198 198 199 198 197 194 190 190 192 194 195 193 194 193 199 201
180 192 198 191 182 194 199 199 203 199 193 190 186 189 190 193 195 195 198 198 199 199 202 202 202 202 202 201 201 198 195 193 190 190 192 195 196 194 194 195 198 198
207 194 199 194 166 162 185 199 197 190 189 188 185 193 196 197 198 199 198 198 202 205 206 202 202 206 206 204 200 198 195 196 192 190 193 197 197 195 193 195 197 196
209 201 192 175 148 146 172 201 202 193 187 183 182 192 200 202 202 201 196 200 207 209 208 204 206 209 208 204 200 199 197 195 194 194 195 197 197 196 195 195 195 196
179 183 182 167 156 153 163 170 180 251 253 194 168 151 122 282 258 215 204 204 208 212 210 209 213 214 211 204 199 198 195 194 195 199 197 196 196 197 196 197 197 197
166 171 169 167 158 154 158 161 153 147 173 256 266 232 198 181 172 205 244 249 245 241 227 222 221 218 208 199 201 198 194 195 196 199 196 195 197 196 197 196 201 200
176 173 173 168 159 167 171 166 165 174 186 200 205 213 238 258 210 204 205 197 196 215 229 239 243 228 199 195 197 197 197 198 199 199 197 201 199 198 198 197 198 199
176 176 176 174 181 181 179 176 180 181 183 190 201 198 188 188 198 206 212 212 205 205 208 212 230 239 215 200 195 195 198 197 202 201 200 205 202 200 198 198 195 197
176 177 180 184 180 171 166 177 185 193 194 194 193 181 189 186 181 194 201 207 217 208 206 218 220 211 216 208 193 195 198 198 204 201 206 207 205 201 200 200 195 194
175 182 190 187 181 173 166 176 184 191 197 197 187 186 187 188 188 193 201 203 209 212 206 218 224 190 192 207 211 201 199 196 206 203 206 209 209 207 204 202 197 196
181 187 189 186 182 175 176 183 187 189 192 190 189 189 192 189 191 192 201 205 208 209 206 218 222 202 186 189 199 202 200 194 204 210 208 209 213 212 209 202 196 195
190 191 193 190 185 182 187 189 189 194 196 183 188 190 186 189 190 194 200 204 204 204 205 211 217 194 193 194 196 199 194 184 202 212 213 212 216 216 214 210 201 196
191 192 194 191 187 191 192 193 192 192 190 179 187 188 192 196 197 203 207 208 208 209 209 212 219 202 200 205 202 193 182 190 202 208 215 213 217 214 209 209 210 204
186 192 194 191 196 201 195 190 189 191 190 182 192 192 198 196 196 205 213 210 208 207 200 206 218 212 201 206 198 187 187 193 197 215 215 215 215 215 209 207 209 208
194 195 195 194 203 206 202 200 190 177 179 184 191 193 197 199 201 207 213 214 208 209 208 210 216 220 203 199 190 189 189 191 187 196 219 218 216 214 207 212 211 210